Weather History for KSUX - March, 2013

Change the Weather History Date:

Wednesday, March 6, 2013

  Actual Average Record
Temperature  
Mean Temperature 28 °F 32 °F  
Max Temperature 35 °F 42 °F 78 °F (1987)
Min Temperature 20 °F 22 °F -11 °F (1962)
Degree Days  
Heating Degree Days 37 33  
Month to date heating degree days 232 204  
Since 1 July heating degree days 5381 5498  
Cooling Degree Days 0 0  
Month to date cooling degree days 0 0  
Year to date cooling degree days 0 0  
Moisture  
Dew Point 19 °F    
Average Humidity 75    
Maximum Humidity 88    
Minimum Humidity 52    
Precipitation  
Precipitation 0.00 in 0.04 in 1.65 in (1983)
Month to date precipitation T 0.26  
Year to date precipitation 1.20 1.55  
Snow  
Snow 0.00 in 0.20 in 7.00 in (1995)
Month to date snowfall 0.2 1.5  
Since 1 July snowfall 21.0 28.0  
Snow Depth 1.00 in    
Sea Level Pressure  
Sea Level Pressure 30.40 in    
Wind  
Wind Speed 7 mph (East)    
Max Wind Speed 17 mph    
Max Gust Speed 21 mph    
Visibility 9 miles    
Events      
T = Trace of Precipitation, MM = Missing Value Source: NWS Daily Summary

Daily Weather History Graph

Daily Weather History Graph

Search for Another Location

Airport or City:

Trip Planner

Search our weather history database for the weather conditions in past years. The results will help you decide how hot, cold, wet, or windy it might be!

Date:

Astronomy

Mar. 06, 2013 Rise Set
Actual Time 6:52 AM CST 6:21 PM CST
Civil Twilight 6:24 AM CST 6:49 PM CST
Nautical Twilight 5:51 AM CST 7:22 PM CST
Astronomical Twilight 5:19 AM CST 7:55 PM CST
Moon 3:07 AM CST (3/6) 12:59 PM CST (3/6)
Length of Visible Light 12h 25m
Length of Day
11h 29m
Waning Crescent, 29% of the Moon is Illuminated
Mar 6
Waning Crescent
Mar 11
New
Mar 19
First Quarter
Mar 27
Full
Apr 2
Last Quarter

Hourly Weather History & Observations

Time (CST) Temp. Windchill Dew Point Humidity Pressure Visibility Wind Dir Wind Speed Gust Speed Precip Events Conditions
12:52 AM 21.9 °F 8.7 °F 15.1 °F 75% 30.47 in 10.0 mi NNW 15.0 mph 20.7 mph N/A   Overcast
1:52 AM 21.9 °F 11.0 °F 15.1 °F 75% 30.47 in 10.0 mi NNW 10.4 mph - N/A   Overcast
2:52 AM 21.0 °F 9.3 °F 15.1 °F 78% 30.46 in 10.0 mi NNW 11.5 mph - N/A   Overcast
3:52 AM 21.0 °F 10.6 °F 15.1 °F 78% 30.47 in 10.0 mi NW 9.2 mph - N/A   Overcast
4:52 AM 21.0 °F 10.6 °F 15.1 °F 78% 30.46 in 10.0 mi NE 9.2 mph - N/A   Overcast
5:52 AM 19.9 °F 13.4 °F 15.1 °F 81% 30.49 in 10.0 mi NNW 4.6 mph - N/A   Overcast
6:23 AM 21.2 °F 13.6 °F 15.8 °F 80% 30.43 in 10.0 mi North 5.8 mph - N/A   Overcast
6:52 AM 19.9 °F 14.9 °F 15.1 °F 81% 30.48 in 10.0 mi NW 3.5 mph - N/A   Overcast
7:52 AM 19.9 °F - 15.1 °F 81% 30.48 in 10.0 mi Calm Calm - N/A   Overcast
8:52 AM 19.9 °F - 15.1 °F 81% 30.49 in 10.0 mi Calm Calm - N/A   Overcast
9:52 AM 21.0 °F - 16.0 °F 81% 30.48 in 10.0 mi Calm Calm - N/A   Overcast
10:52 AM 23.0 °F 18.4 °F 17.1 °F 78% 30.48 in 10.0 mi Variable 3.5 mph - N/A   Scattered Clouds
10:56 AM 23.0 °F 18.4 °F 17.6 °F 80% 30.43 in 10.0 mi SE 3.5 mph - N/A   Mostly Cloudy
11:52 AM 26.1 °F 21.9 °F 18.0 °F 71% 30.46 in 10.0 mi Variable 3.5 mph - N/A   Mostly Cloudy
11:55 AM 26.6 °F 22.6 °F 19.4 °F 74% 30.41 in 10.0 mi WSW 3.5 mph - N/A   Mostly Cloudy
12:52 PM 27.0 °F 23.0 °F 19.0 °F 72% 30.45 in 3.0 mi South 3.5 mph - N/A   Haze
1:52 PM 28.9 °F - 19.9 °F 69% 30.40 in 4.0 mi Calm Calm - N/A   Haze
2:52 PM 30.9 °F 27.5 °F 21.0 °F 67% 30.38 in 4.0 mi ESE 3.5 mph - N/A   Haze
2:59 PM 32.0 °F 27.5 °F 21.2 °F 64% 30.32 in 4.0 mi ENE 4.6 mph - N/A   Haze
3:52 PM 33.1 °F 26.9 °F 21.9 °F 64% 30.35 in 10.0 mi SE 6.9 mph - N/A   Clear
4:52 PM 34.0 °F 28.8 °F 21.9 °F 61% 30.33 in 10.0 mi SE 5.8 mph - N/A   Clear
5:52 PM 34.0 °F 27.2 °F 23.0 °F 64% 30.31 in 10.0 mi East 8.1 mph - N/A   Clear
6:52 PM 30.0 °F 21.1 °F 23.0 °F 75% 30.31 in 10.0 mi ESE 10.4 mph - N/A   Clear
7:52 PM 28.9 °F 19.8 °F 21.9 °F 75% 30.30 in 10.0 mi ESE 10.4 mph - N/A   Clear
8:52 PM 27.0 °F 16.1 °F 21.9 °F 81% 30.30 in 10.0 mi SE 12.7 mph - N/A   Clear
9:52 PM 26.1 °F 15.0 °F 21.9 °F 84% 30.31 in 10.0 mi ESE 12.7 mph - N/A   Clear
10:52 PM 25.0 °F 14.2 °F 21.0 °F 85% 30.31 in 10.0 mi ESE 11.5 mph - N/A   Clear
11:52 PM 24.1 °F 12.0 °F 21.0 °F 88% 30.32 in 10.0 mi ESE 13.8 mph - N/A   Clear